sat.trackr.live / text

‹ back to catalog

STARLINK-30834

NORAD 58151 · 2023-166B

PAYLOAD ACTIVE UNKNOWN

§ Identity

Operator
Country
US
Launch date
2023-10-29
Launch site
AFWTR
Launch vehicle
Mass (kg)
RCS (m²)

Purposes: comms

External: N2YO · Heavens-Above · Gunter

§ Orbital elements

Epoch: 2026-05-24T15:31:44.052960Z

Period
94.11 min
Inclination
53.1576°
Eccentricity
0.0000890
Mean motion
15.30194278 rev/d
Perigee alt
474.6 km
Apogee alt
475.8 km
Semi-major
6,853.4 km
B*
6.5937e-4
RAAN
226.9393°
Arg perigee
78.0847°
Mean anomaly
282.0253°
Rev number
14,480

§ Raw data

STARLINK-308341 58151U 23166B   26144.64703765  .00019217  00000+0  65937-3 0  99952 58151  53.1576 226.9393 0000890  78.0847 282.0253 15.30194278144803

JSON: /api/v1/satellites/58151 · /tle

For live sub-satellite position, see the globe view (requires WebGL).

§ Visibility from observer

Set your observer location to see the next 7 days of passes ≥ 10°. The values pass through the URL so the page stays shareable.

No JS? Fill the form by hand. The geolocation button needs JavaScript.